User: anonymous   Login
Location: Unspecified
(0.0000°N, 0.0000°E)
Time: 17:28:34
(UTC+00:00)
Language:

KANOPUS-V 4 - Orbit

View from above orbital plane
View from above orbital plane
View from above satellite
View from above satellite

Ground track
Ground track

The orbit data is extracted from the following two-line orbital elements,

1 43181U 18014B   18262.04728862  .00000129  00000-0  93822-5 0  9998
2 43181  97.4511 169.2269 0001576  76.9636  47.5100 15.18902801 34916
Epoch (UTC): 19 September 2018 01:08:05
Eccentricity: 0.0001576
inclination: 97.4511°
perigee height: 508 km
apogee height: 510 km
right ascension of ascending node: 169.2269°
argument of perigee: 76.9636°
revolutions per day: 15.18902801
mean anomaly at epoch: 47.5100°
orbit number at epoch: 3491

The dashed part of the orbit path shows where the satellite is in the earth's shadow,  

DLR